USA 159 (DSP 21)

Last updated on Mon Jan 19 2026 00:02:46 GMT+0000 (Coordinated Universal Time)

1 26880U 01033A 26018.35871142 -.00000286 00000+0 00000+0 0 9994 2 26880 12.6441 17.4772 0000458 319.4949 220.7631 1.00267873 31467
UTC large
Height (km)
Speed (km/s)
/
Latitude / Longitude
Inclination (degrees)
Orbital Period (minutes)
Azimuth
Elevation
Range (km)
Doppler Factor

Next 0 passes for location: London (51.5072 / 0.1276)

Sorry there are no passes over London.